Flag for Norway Weather past 2 weeks in Lierbyen, Norway

Now
59 °F

Partly sunny.


Feels Like: 54 °F
Forecast: 51 / 57 °F
Wind: 33 mph from Southeast

Location: Oslo / Fornebu

Current Time: Aug 29, 2014 at 11:07:46 AM

Latest Report: Aug 29, 2014 at 10:20 AM


Visibility: N/A

Pressure: 29.77 "Hg

Humidity: 82%

Dew point: 54 °F

Location of LierbyenLocation

Historic Weather in Lierbyen — Graph

°F

Lierbyen temperature yesterday

Maximum temperature yesterday: 61 °F (at 12:50 PM)
Minimum temperature yesterday: 54 °F (at 12:50 AM)
Average temperature yesterday: 57 °F

Past Weeks' High & Low Weather Summary

 TemperatureHumidityPressure
High61 °F (Aug 28, 12:50 PM)100% (Aug 16, 4:50 PM)30.07 "Hg (Aug 16, 4:50 PM)
Low52 °F (Aug 16, 3:50 AM)59% (Aug 15, 9:50 AM)29.33 "Hg (Aug 17, 3:50 AM)
Average54 °F79%29.72 "Hg
* Reported Aug 14 9:20 AM — Aug 29 9:50 AM, Lierbyen, Weather by CustomWeather, © 2014

Note: Actual official high and low records may vary slightly from our data, if they occured in-between our weather recording intervals... More about our weather records

Advertising

Lierbyen weather history for previous 24 hours

 ConditionsComfort  
Time TempWeatherWind HumidityBarometerVisibility
9:50 AM
Aug 29
59 °FPartly sunny.32 mph82%29.77 "HgN/A
9:20 AM59 °FPartly sunny.32 mph82%29.77 "HgN/A
8:50 AM59 °FPassing clouds.31 mph82%29.77 "HgN/A
8:20 AM59 °FPassing clouds.33 mph82%29.77 "HgN/A
7:50 AM57 °FPartly sunny.32 mph88%29.77 "HgN/A
7:20 AM57 °FCool.33 mph88%29.77 "HgN/A
6:50 AM57 °FCool.N/A88%29.80 "HgN/A
6:20 AM57 °FCool.N/A88%29.80 "HgN/A
5:50 AM57 °FCool.31 mph88%29.80 "HgN/A
5:20 AM57 °FCool.29 mph88%29.80 "HgN/A
4:50 AM57 °FCool.28 mph88%29.83 "HgN/A
4:20 AM57 °FCool.25 mph88%29.83 "HgN/A
3:50 AM57 °FCool.25 mph88%29.83 "HgN/A
3:20 AM57 °FCool.25 mph88%29.83 "HgN/A
2:50 AM57 °FCool.25 mph88%29.86 "HgN/A
2:20 AM57 °FCool.24 mph88%29.86 "HgN/A
1:50 AM57 °FCool.24 mph88%29.86 "HgN/A
1:20 AM57 °FCool.24 mph88%29.86 "HgN/A
12:50 AM57 °FCool.N/A88%29.86 "HgN/A
12:20 AM57 °FCool.N/A88%29.86 "HgN/A
11:50 PM
Aug 28
57 °FCool.N/A82%29.86 "HgN/A
11:20 PM57 °FCool.N/A82%29.89 "HgN/A
10:50 PM57 °FCool.N/A82%29.89 "HgN/A
10:20 PM57 °FCool.N/A82%29.89 "HgN/A
9:50 PM57 °FCool.N/A82%29.89 "HgN/A
9:20 PM57 °FCool.N/A77%29.89 "HgN/A
8:50 PM57 °FCool.18 mph77%29.89 "HgN/A
8:20 PM57 °FCool.16 mph77%29.89 "HgN/A
7:50 PM59 °FCool.16 mph72%29.89 "HgN/A
7:20 PM59 °FCool.16 mph68%29.89 "HgN/A
6:50 PM57 °FPartly sunny.17 mph72%29.89 "HgN/A
6:20 PM57 °FPartly sunny.18 mph72%29.92 "HgN/A
5:50 PM57 °FPartly sunny.17 mph72%29.92 "HgN/A
5:20 PM57 °FScattered clouds.16 mph72%29.92 "HgN/A
4:50 PM57 °FPartly sunny.17 mph72%29.92 "HgN/A
4:20 PM57 °FScattered clouds.18 mph72%29.92 "HgN/A
3:50 PM57 °FPassing clouds.18 mph72%29.92 "HgN/A
3:20 PM59 °FPartly sunny.16 mph72%29.92 "HgN/A
2:50 PM59 °FPartly sunny.16 mph72%29.92 "HgN/A
2:20 PM61 °FPartly sunny.13 mph72%29.92 "HgN/A
1:50 PM61 °FPassing clouds.10 mph72%29.92 "Hg4 mi
1:20 PM59 °FCool.7 mph82%29.92 "HgN/A
12:50 PM61 °FCool.7 mph77%29.92 "HgN/A
12:20 PM59 °FCool.7 mph82%29.92 "HgN/A
11:50 AM57 °FCool.9 mph88%29.92 "HgN/A
11:20 AM57 °FPassing clouds.10 mph82%29.92 "HgN/A
Weather by CustomWeather, © 2014

See weather overviewHow to use our weather pages